User: anonymous   Login
Location: Luz Observatory
(34.5000°N, 117.2833°W)
Time: 03:19:05
(UTC-07:00)
Language:

Okean 3 Rocket - Orbit

View from above orbital plane
View from above orbital plane
View from above satellite
View from above satellite

Ground track
Ground track

The orbit data is extracted from the following two-line orbital elements,

1 21398U 91039B   17147.86502913 +.00000059 +00000-0 +48490-5 0  9993
2 21398 082.5243 245.0983 0020020 247.7554 251.8817 14.79663168379864
Epoch (UTC): 27 May 2017 20:45:38
Eccentricity: 0.0020020
inclination: 82.5243°
perigee height: 616 km
apogee height: 644 km
right ascension of ascending node: 245.0983°
argument of perigee: 247.7554°
revolutions per day: 14.79663168
mean anomaly at epoch: 251.8817°
orbit number at epoch: 37986

The dashed part of the orbit path shows where the satellite is in the earth's shadow,  

DLR